Tracking 19831 objects as of 23-Aug-2019
HD Live streaming from Space Station
objects crossing your sky now

EKRAN 7

Track EKRAN 7 now!
EKRAN 7 is classified as:


NORAD ID: 12564
Int'l Code: 1981-061A
Perigee: 35,766.9 km
Apogee: 35,817.8 km
Inclination: 12.0 °
Period: 1,436.0 minutes
Semi major axis: 42163 km
RCS: 3.9811 m2 (large)
Launch date: June 26, 1981
Source: Commonwealth of Independent States (former USSR) (CIS)
Launch site: TYURATAM MISSILE AND SPACE COMPLEX (TTMTR)
aabbcc
Your satellite tracking list
Your tracking list is empty




NASA's NSSDC Master Catalog

Two Line Element Set (TLE):
1 12564U 81061A   19234.98396817 -.00000309  00000-0  00000+0 0  9996
2 12564  12.0405 318.9324 0006037  21.9909  84.6378  1.00276896104536
Source of the keplerian elements: AFSPC